Weather in Amed

Indonesia     8°20′46″S   115°40′38″E
temp.,
°C
wind,
m/s
gust,
m/s
humid.,
%
clouds,
%
prec.,
mm/h
press.,
hPa
HPBL,
m
6 august, fri
fri623:00+27s788065 0.0 1014700
02:00+27s778088 0.0 1013688
05:00+26sse778149 0.1 1013664
08:00+26s668199 0.1 1014582
11:00+27sse4479100 0.0 1014415
14:00+27ne3374100 0.0 1012352
17:00+27nw1171100 0.1 1011344
20:00+27sse557629 0.1 1013692
7 august, sat
sat723:00+27s338035 0.1 1014427
02:00+26s227914 0.1 1012316
05:00+26ssw3279100 0.1 1012365
08:00+26sse4480100 0.1 1013383
11:00+27se33809 0.0 1013310
14:00+27ne227423 0.0 1011400
17:00+28ene12705 0.0 1011490
20:00+27sse337445 0.0 1013562
8 august, sun
sun823:00+27ssw32783 0.0 1014302
02:00+27s21765 0.0 1012409
05:00+26s338015 0.1 1012340
08:00+26s44785 0.1 1014412
11:00+27sse55765 0.0 1013382
14:00+27se55735 0.0 1011375
17:00+28se34715 0.0 1010411
20:00+27s77765 0.0 1012656
9 august, mon
mon923:00+26s66775 0.0 1013515
02:00+26s66785 0.0 1012485
05:00+26s66792 0.0 1012534
08:00+26s777940 0.1 1013568
11:00+27s887029 0.0 1013764
14:00+27s10107211 0.0 1010576
17:00+27s1112757 0.0 1009776
20:00+26s910745 0.0 1012790
10 august, tue
tue1023:00+26s88745 0.0 1013758
02:00+26s99745 0.0 1012790
05:00+26s1011745 0.0 1012921
08:00+26s1011725 0.0 1013971
11:00+27s910676 0.0 10131047
14:00+27s1313695 0.0 1010839
17:00+27s12136931 0.0 10111000
20:00+26sse11126978 0.0 10131305